LZ3VG-1 Weather Reports


time (UTC)temp
F
wind
direction
speed
knots
gust
knots
rain 1hr
in
rain 24hr
in
rain mn
in
humidity
%
barometer
mb
20260504223126 51 142 1.7 1.7 0.00 0.00 0.00 82 1011.9
20260504222708 52 130 0.0 0.9 0.00 0.00 0.00 80 1012.1
20260504222704 52 145 0.9 1.7 0.00 0.00 0.00 81 1011.9
20260504221347 52 154 0.0 1.7 0.00 0.00 0.00 81 1012.0
20260504220850 52 149 0.0 1.7 0.00 0.00 0.00 81 1012.2
20260504220349 52 129 0.0 1.7 0.00 0.00 0.00 81 1012.0
20260504220129 53 132 0.9 0.9 0.00 0.00 0.00 80 1012.2
20260504215632 53 132 0.9 0.9 0.00 0.00 0.00 80 1012.3
20260504215127 53 48 0.0 1.7 0.00 0.00 0.00 79 1012.1
20260504214349 53 130 0.0 1.7 0.00 0.00 0.00 80 1012.5
20260504213847 54 139 1.7 1.7 0.00 0.00 0.00 78 1012.1
20260504213349 54 142 1.7 2.6 0.00 0.00 0.00 77 1012.2
20260504212848 54 137 1.7 2.6 0.00 0.00 0.00 76 1012.3
20260504212349 54 153 0.9 1.7 0.00 0.00 0.00 75 1012.3
20260504211849 55 142 0.9 1.7 0.00 0.00 0.00 74 1012.5
20260504211626 55 205 0.0 0.9 0.00 0.00 0.00 74 1012.6
20260504210848 55 133 0.0 0.9 0.00 0.00 0.00 74 1012.3
20260504210349 55 141 0.0 0.9 0.00 0.00 0.00 74 1012.6
20260504205914 55 166 0.0 1.7 0.00 0.00 0.00 76 1012.5
20260504205906 55 139 0.9 1.7 0.00 0.00 0.00 75 1012.3
20260504204848 55 111 1.7 1.7 0.00 0.00 0.00 76 1012.4
20260504204631 55 144 0.9 1.7 0.00 0.00 0.00 74 1012.8
20260504203918 56 142 1.7 1.7 0.00 0.00 0.00 73 1012.8
20260504203906 56 146 1.7 1.7 0.00 0.00 0.00 74 1012.6
20260504202849 56 157 0.9 1.7 0.00 0.00 0.00 72 1012.5
20260504202348 56 133 0.9 1.7 0.00 0.00 0.00 71 1012.8
20260504201849 57 148 0.9 1.7 0.00 0.00 0.00 70 1012.4
20260504201348 57 165 0.0 1.7 0.00 0.00 0.00 71 1012.6
20260504200849 58 140 0.9 1.7 0.00 0.00 0.00 70 1012.6
20260504200349 58 126 0.9 1.7 0.00 0.00 0.00 68 1012.7
20260504200130 58 149 0.9 1.7 0.00 0.00 0.00 67 1012.5
20260504195348 58 133 0.0 1.7 0.00 0.00 0.00 66 1012.5
20260504195127 59 144 1.7 1.7 0.00 0.00 0.00 66 1012.7
20260504194347 59 227 0.0 1.7 0.00 0.00 0.00 66 1012.6
20260504193848 60 186 0.0 1.7 0.00 0.00 0.00 66 1012.7
20260504193348 60 168 0.9 1.7 0.00 0.00 0.00 66 1012.7
20260504192849 61 165 0.9 1.7 0.00 0.00 0.00 64 1012.4
20260504192349 61 202 0.0 1.7 0.00 0.00 0.00 63 1012.4
20260504192128 62 135 0.0 1.7 0.00 0.00 0.00 62 1012.4
20260504191348 62 135 0.0 1.7 0.00 0.00 0.00 59 1012.5
20260504190849 63 152 0.9 1.7 0.00 0.00 0.00 57 1012.5
20260504190349 64 176 0.9 1.7 0.00 0.00 0.00 56 1012.6
20260504190124 64 174 0.0 1.7 0.00 0.00 0.00 54 1012.5
20260504185624 65 147 0.0 1.7 0.00 0.00 0.00 53 1012.2
20260504185124 66 134 0.0 1.7 0.00 0.00 0.00 52 1012.3
20260504184343 67 141 0.9 1.7 0.00 0.00 0.00 50 1012.3
20260504183918 69 138 1.7 2.6 0.00 0.00 0.00 46 1012.2
20260504183906 67 128 0.9 2.6 0.00 0.00 0.00 49 1012.2
20260504183114 70 144 1.7 3.5 0.00 0.00 0.00 43 1012.2
20260504182336 70 138 2.6 4.3 0.00 0.00 0.00 41 1012.4
20260504181836 71 141 2.6 4.3 0.00 0.00 0.00 41 1011.9
20260504181337 71 136 3.5 5.2 0.00 0.00 0.00 40 1012.2
20260504180836 72 137 2.6 5.2 0.00 0.00 0.00 40 1012.1
20260504180337 72 145 2.6 5.2 0.00 0.00 0.00 38 1012.0
20260504175835 73 135 3.5 7.0 0.00 0.00 0.00 37 1012.1
20260504175337 73 145 1.7 7.0 0.00 0.00 0.00 37 1012.3
20260504175115 73 119 1.7 6.1 0.00 0.00 0.00 37 1012.3
20260504174337 73 138 3.5 6.1 0.00 0.00 0.00 37 1012.2
20260504174142 74 143 1.7 7.8 0.00 0.00 0.00 37 1012.0
20260504173854 73 152 4.3 6.1 0.00 0.00 0.00 36 1011.9
20260504172837 74 155 4.3 7.8 0.00 0.00 0.00 36 1012.1
20260504172337 74 134 4.3 7.0 0.00 0.00 0.00 36 1012.1
20260504171906 74 142 2.6 6.1 0.00 0.00 0.00 36 1012.2
20260504171856 74 151 3.5 7.0 0.00 0.00 0.00 36 1012.0
20260504171116 74 129 3.5 6.1 0.00 0.00 0.00 36 1012.1
20260504170337 74 130 2.6 6.1 0.00 0.00 0.00 36 1012.3
20260504160337 77 132 8.7 12.2 0.00 0.00 0.00 35 1012.1
20260504150837 78 114 12.2 14.8 0.00 0.00 0.00 35 1012.2
20260504150336 77 102 1.7 14.8 0.00 0.00 0.00 36 1012.1
20260504140836 78 164 1.7 8.7 0.00 0.00 0.00 35 1012.9
20260504140336 78 136 5.2 8.7 0.00 0.00 0.00 35 1012.8
20260504140112 79 151 1.7 5.2 0.00 0.00 0.00 35 1013.0
20260504130606 77 130 5.2 9.6 0.00 0.00 0.00 38 1013.4
20260504110103 74 128 4.3 7.0 0.00 0.00 0.00 43 1014.9
20260504100323 74 156 1.7 5.2 0.00 0.00 0.00 43 1015.5
20260504081823 67 132 2.6 16.5 0.00 0.00 0.00 47 1015.5
20260504081324 67 116 11.3 16.5 0.00 0.00 0.00 47 1015.3
20260504080821 68 111 7.8 18.2 0.00 0.00 0.00 46 1015.5
20260504080604 67 156 3.5 18.2 0.00 0.00 0.00 48 1015.4
20260504070322 64 139 2.6 13.9 0.00 0.00 0.00 49 1015.4
20260504050321 59 154 0.9 5.2 0.00 0.00 0.00 54 1015.5
20260504045824 59 115 1.7 5.2 0.00 0.00 0.00 53 1015.3
20260504045322 58 124 1.7 5.2 0.00 0.00 0.00 55 1015.6
20260504045103 56 204 1.7 5.2 0.00 0.00 0.00 58 1015.1
20260504044607 55 149 2.6 7.0 0.00 0.00 0.00 60 1015.3
20260504043823 54 189 4.3 11.3 0.00 0.00 0.00 62 1015.2
20260504043321 54 148 7.0 11.3 0.00 0.00 0.00 62 1015.0
20260504042823 54 149 6.1 9.6 0.00 0.00 0.00 63 1014.9
20260504042322 53 135 7.8 8.7 0.00 0.00 0.00 63 1015.0
20260504041824 52 125 4.3 7.8 0.00 0.00 0.00 66 1015.0
20260504041323 51 174 3.5 8.7 0.00 0.00 0.00 69 1015.0
20260504041100 50 151 3.5 8.7 0.00 0.00 0.00 70 1015.2
20260504040322 48 113 5.2 5.2 0.00 0.00 0.00 75 1015.2
20260504035823 48 169 1.7 4.3 0.00 0.00 0.00 76 1015.3
20260504035602 47 176 0.9 4.3 0.00 0.00 0.00 78 1015.6
20260504034823 46 152 1.7 5.2 0.00 0.00 0.00 78 1015.4
20260504034322 46 142 1.7 5.2 0.00 0.00 0.00 77 1015.5
20260504034105 47 123 4.3 5.2 0.00 0.00 0.00 77 1015.7
20260504033322 47 162 3.5 4.3 0.00 0.00 0.00 77 1015.4
20260504032824 47 126 0.0 2.6 0.00 0.00 0.00 75 1015.4
20260504032602 47 131 1.7 4.3 0.00 0.00 0.00 76 1015.4
20260504032102 47 50 0.0 4.3 0.00 0.00 0.00 74 1015.3
20260504031321 48 112 0.9 5.2 0.00 0.00 0.00 73 1015.2
20260504030850 47 21 3.5 4.3 0.00 0.00 0.00 72 1015.6
20260504030839 48 333 1.7 5.2 0.00 0.00 0.00 72 1015.6
20260504025824 47 160 1.7 2.6 0.00 0.00 0.00 73 1015.6
20260504025348 48 148 0.9 5.2 0.00 0.00 0.00 71 1015.4
20260504025336 48 146 0.9 3.5 0.00 0.00 0.00 73 1015.4
20260504024323 49 144 3.5 6.1 0.00 0.00 0.00 70 1015.3
20260504023823 49 173 2.6 6.1 0.00 0.00 0.00 69 1015.3
20260504023322 49 164 2.6 7.8 0.00 0.00 0.00 69 1015.2
20260504022823 49 184 2.6 8.7 0.00 0.00 0.00 69 1015.4
20260504022321 50 164 4.3 8.7 0.00 0.00 0.00 67 1015.5
20260504022105 49 119 7.0 7.8 0.00 0.00 0.00 69 1015.5
20260504021323 47 131 5.2 6.1 0.00 0.00 0.00 75 1015.7
20260504020823 46 119 1.7 4.3 0.00 0.00 0.00 79 1015.5
20260504020323 45 140 1.7 3.5 0.00 0.00 0.00 79 1015.6
20260504015823 45 136 3.5 4.3 0.00 0.00 0.00 80 1015.7
20260504015603 45 160 0.0 4.3 0.00 0.00 0.00 80 1015.6
20260504015103 45 139 2.6 2.6 0.00 0.00 0.00 82 1015.6
20260504014322 45 110 0.0 1.7 0.00 0.00 0.00 81 1015.7
20260504013824 44 111 1.7 1.7 0.00 0.00 0.00 82 1015.5
20260504013603 45 142 0.9 1.7 0.00 0.00 0.00 81 1015.3
20260504012822 45 129 0.0 1.7 0.00 0.00 0.00 81 1015.3
20260504012322 45 159 1.7 1.7 0.00 0.00 0.00 81 1015.5
20260504011823 45 113 0.0 1.7 0.00 0.00 0.00 80 1015.5
20260504011322 45 103 0.0 2.6 0.00 0.00 0.00 80 1015.5
20260504011104 45 89 0.0 2.6 0.00 0.00 0.00 79 1015.3
20260504010322 46 127 1.7 2.6 0.00 0.00 0.00 79 1015.5
20260504005824 46 132 1.7 2.6 0.00 0.00 0.00 78 1015.3
20260504005322 46 122 1.7 2.6 0.00 0.00 0.00 80 1015.8
20260504004823 46 129 1.7 2.6 0.00 0.00 0.00 80 1015.6
20260504004323 46 128 1.7 2.6 0.00 0.00 0.00 80 1015.6
20260504004104 46 129 0.9 1.7 0.00 0.00 0.00 79 1015.6
20260504003321 46 151 0.9 1.7 0.00 0.00 0.00 78 1015.8
20260504002823 47 159 0.0 1.7 0.00 0.00 0.00 78 1015.6
20260504002321 47 105 0.0 1.7 0.00 0.00 0.00 77 1015.6
20260504002106 47 130 0.0 1.7 0.00 0.00 0.00 77 1015.8
20260504001605 47 130 0.9 1.7 0.00 0.00 0.00 77 1015.6
20260504001126 48 162 0.9 2.6 0.00 0.00 0.00 75 1015.7
20260504000840 47 159 1.7 2.6 0.00 0.00 0.00 76 1015.6
20260503235823 48 141 2.6 2.6 0.00 0.00 0.00 75 1015.6
20260503235322 48 142 2.6 2.6 0.00 0.00 0.00 74 1016.0
20260503235103 49 135 1.7 1.7 0.00 0.00 0.00 72 1015.6
20260503234322 49 145 0.0 1.7 0.00 0.00 0.00 71 1015.6
20260503233825 49 154 0.0 1.7 0.00 0.00 0.00 71 1015.7
20260503233322 50 148 0.9 0.9 0.00 0.00 0.00 71 1015.7
20260503232823 50 84 0.9 3.5 0.00 0.00 0.00 70 1015.6
20260503232323 50 135 0.0 3.5 0.00 0.00 0.00 69 1015.8
20260503231823 51 180 0.0 2.6 0.00 0.00 0.00 68 1015.6
20260503231321 51 109 0.9 2.6 0.00 0.00 0.00 68 1015.8
20260503230823 52 110 1.7 2.6 0.00 0.00 0.00 65 1015.7
20260503230321 52 140 1.7 1.7 0.00 0.00 0.00 64 1015.9
20260503230104 53 117 0.0 1.7 0.00 0.00 0.00 62 1015.7
20260503225600 54 45 0.0 0.9 0.00 0.00 0.00 59 1015.9
20260503224823 54 129 0.0 2.6 0.00 0.00 0.00 60 1015.8
20260503224606 55 138 0.0 2.6 0.00 0.00 0.00 56 1015.8
20260503223822 56 305 0.0 3.5 0.00 0.00 0.00 53 1015.8
20260503223321 57 105 1.7 3.5 0.00 0.00 0.00 51 1015.6